CW1780 Weather Reports


Display with metric or nautical units.
time (UTC)temp
F
wind
direction
speed
MPH
gust
MPH
rain 1hr
in
rain 24hr
in
rain mn
in
humidity
%
barometer
mb
20260510175003 73 57 1.0 6.0 0.00 0.00 0.00 52 1016.2
20260510174003 73 78 1.0 6.0 0.00 0.00 0.00 53 1016.4
20260510173003 72 96 2.0 6.0 0.00 0.00 0.00 51 1016.4
20260510172003 72 336 1.0 6.0 0.00 0.00 0.00 49 1016.5
20260510171003 72 85 1.0 7.0 0.00 0.00 0.00 47 1016.6
20260510170003 72 63 1.0 8.0 0.00 0.00 0.00 50 1016.7
20260510165024 72 105 1.0 6.0 0.00 0.00 0.00 50 1016.6
20260510164024 71 106 1.0 9.0 0.00 0.00 0.00 58 1016.7
20260510163003 70 79 2.0 6.0 0.00 0.00 0.00 54 1016.7
20260510162003 70 64 1.0 7.0 0.00 0.00 0.00 53 1016.8
20260510161003 70 83 2.0 10.0 0.00 0.00 0.00 55 1016.9
20260510160003 70 84 2.0 5.0 0.00 0.00 0.00 54 1017.0
20260510155003 70 78 1.0 11.0 0.00 0.00 0.00 53 1016.8
20260510154003 70 65 1.0 5.0 0.00 0.00 0.00 55 1016.8
20260510153003 69 72 1.0 7.0 0.00 0.00 0.00 60 1016.9
20260510152004 68 85 1.0 8.0 0.00 0.00 0.00 57 1017.0
20260510151003 68 73 2.0 8.0 0.00 0.00 0.00 61 1016.9
20260510150003 68 302 1.0 6.0 0.00 0.00 0.00 60 1016.8
20260510145003 67 319 1.0 6.0 0.00 0.00 0.00 65 1016.8
20260510144003 66 305 1.0 8.0 0.00 0.00 0.00 64 1016.7
20260510143003 66 308 1.0 7.0 0.00 0.00 0.00 66 1016.9
20260510142004 65 355 1.0 7.0 0.00 0.00 0.00 67 1016.8
20260510141003 64 337 1.0 5.0 0.00 0.00 0.00 68 1016.8
20260510140003 64 306 1.0 8.0 0.00 0.00 0.00 70 1016.9
20260510135003 63 316 1.0 5.0 0.00 0.00 0.00 72 1016.9
20260510134024 62 87 1.0 6.0 0.00 0.00 0.00 73 1016.9
20260510133003 61 287 1.0 6.0 0.00 0.00 0.00 76 1017.0
20260510132024 60 77 1.0 8.0 0.00 0.00 0.00 77 1017.0
20260510131003 60 236 0.0 8.0 0.00 0.00 0.00 80 1016.9
20260510130004 58 85 0.0 3.0 0.00 0.00 0.00 83 1016.9
20260510125003 57 92 1.0 8.0 0.00 0.00 0.00 85 1016.8
20260510124003 56 115 0.0 9.0 0.00 0.00 0.00 87 1016.9
20260510123024 55 107 0.0 5.0 0.00 0.00 0.00 89 1016.9
20260510122006 54 123 0.0 5.0 0.00 0.00 0.00 93 1016.7
20260510121024 52 138 0.0 5.0 0.00 0.00 0.00 95 1016.6
20260510120003 51 102 0.0 5.0 0.00 0.00 0.00 97 1016.4
20260510115003 50 0 0.0 0.0 0.00 0.00 0.00 97 1016.4
20260510114003 48 0 0.0 0.0 0.00 0.00 0.00 96 1016.3
20260510113003 47 0 0.0 0.0 0.00 0.00 0.00 96 1016.3
20260510112024 46 0 0.0 0.0 0.00 0.00 0.00 96 1016.1
20260510111003 44 0 0.0 0.0 0.00 0.00 0.00 96 1015.9
20260510110003 44 0 0.0 0.0 0.00 0.00 0.00 95 1015.7
20260510105003 44 0 0.0 0.0 0.00 0.00 0.00 95 1015.5
20260510104003 43 0 0.0 0.0 0.00 0.00 0.00 95 1015.3
20260510103003 44 0 0.0 0.0 0.00 0.00 0.00 94 1015.1
20260510102003 44 0 0.0 0.0 0.00 0.00 0.00 94 1015.0
20260510101003 44 0 0.0 0.0 0.00 0.00 0.00 94 1015.0
20260510100004 44 0 0.0 0.0 0.00 0.00 0.00 94 1015.0
20260510095004 44 0 0.0 0.0 0.00 0.00 0.00 94 1014.8
20260510094010 44 0 0.0 0.0 0.00 0.00 0.00 94 1014.6
20260510093011 44 0 0.0 0.0 0.00 0.00 0.00 94 1014.7
20260510092003 44 0 0.0 0.0 0.00 0.00 0.00 93 1014.6
20260510091003 44 0 0.0 0.0 0.00 0.00 0.00 93 1014.6
20260510090003 45 0 0.0 0.0 0.00 0.00 0.00 93 1014.6
20260510085003 45 0 0.0 0.0 0.00 0.00 0.00 93 1014.4
20260510084003 45 0 0.0 0.0 0.00 0.00 0.00 93 1014.3
20260510083003 46 0 0.0 0.0 0.00 0.00 0.00 93 1014.2
20260510082003 46 0 0.0 0.0 0.00 0.00 0.00 94 1014.2
20260510081003 46 0 0.0 0.0 0.00 0.00 0.00 93 1014.2
20260510080003 46 0 0.0 0.0 0.00 0.00 0.00 93 1014.0
20260510075024 46 0 0.0 0.0 0.00 0.00 0.00 93 1014.0
20260510074003 46 0 0.0 0.0 0.00 0.00 0.00 92 1013.9
20260510073003 46 0 0.0 0.0 0.00 0.00 0.00 92 1013.8
20260510072003 47 0 0.0 0.0 0.00 0.00 0.00 92 1013.9
20260510071024 47 0 0.0 0.0 0.00 0.00 0.00 92 1013.8
20260510070004 48 0 0.0 0.0 0.00 0.00 0.00 92 1013.9
20260510065003 48 0 0.0 0.0 0.00 0.00 0.00 92 1013.8
20260510064024 48 0 0.0 0.0 0.00 0.00 0.00 92 1013.7
20260510063003 48 0 0.0 0.0 0.00 0.00 0.00 92 1013.7
20260510062024 47 0 0.0 0.0 0.00 0.00 0.00 92 1013.8
20260510061003 47 0 0.0 0.0 0.00 0.00 0.00 91 1013.9
20260510060029 48 0 0.0 0.0 0.00 0.00 0.00 90 1013.9
20260510055008 48 0 0.0 0.0 0.00 0.00 0.00 90 1013.9
20260510054003 48 0 0.0 0.0 0.00 0.00 0.00 89 1013.9
20260510053024 48 0 0.0 0.0 0.00 0.00 0.00 89 1013.9
20260510052003 49 0 0.0 0.0 0.00 0.00 0.00 92 1013.9
20260510051004 49 0 0.0 0.0 0.00 0.00 0.00 88 1013.7
20260510050003 49 0 0.0 0.0 0.00 0.00 0.00 88 1013.9
20260510045003 50 0 0.0 0.0 0.00 0.00 0.00 87 1013.9
20260510044003 50 0 0.0 0.0 0.00 0.00 0.00 87 1013.8
20260510043024 51 0 0.0 0.0 0.00 0.00 0.00 87 1013.8
20260510042003 51 0 0.0 0.0 0.00 0.00 0.00 86 1013.7
20260510041003 51 0 0.0 0.0 0.00 0.00 0.00 86 1013.4
20260510040004 51 0 0.0 0.0 0.00 0.00 0.00 86 1013.6
20260510035003 51 0 0.0 0.0 0.00 0.00 0.00 84 1013.6
20260510034003 52 0 0.0 0.0 0.00 0.00 0.00 83 1013.4
20260510033003 52 0 0.0 0.0 0.00 0.00 0.00 83 1013.5
20260510032003 53 0 0.0 0.0 0.00 0.00 0.00 82 1013.4
20260510031024 53 0 0.0 0.0 0.00 0.00 0.00 80 1013.3
20260510030003 54 0 0.0 0.0 0.00 0.00 0.00 80 1013.1
20260510025003 54 0 0.0 0.0 0.00 0.00 0.00 78 1013.1
20260510024003 55 0 0.0 0.0 0.00 0.00 0.00 78 1013.1
20260510023003 55 0 0.0 0.0 0.00 0.00 0.00 76 1013.1
20260510022003 56 0 0.0 0.0 0.00 0.00 0.00 76 1013.0
20260510021003 56 0 0.0 0.0 0.00 0.00 0.00 76 1012.9
20260510020004 56 0 0.0 0.0 0.00 0.00 0.00 75 1012.8
20260510015003 56 0 0.0 0.0 0.00 0.00 0.00 75 1012.4
20260510014003 56 0 0.0 0.0 0.00 0.00 0.00 75 1012.5
20260510013003 57 0 0.0 0.0 0.00 0.00 0.00 73 1012.3
20260510012003 58 0 0.0 0.0 0.00 0.00 0.00 72 1012.1
20260510011003 59 0 0.0 0.0 0.00 0.00 0.00 70 1012.0
20260510010003 60 0 0.0 0.0 0.00 0.00 0.00 68 1011.7
20260510005003 61 0 0.0 0.0 0.00 0.00 0.00 66 1011.5
20260510004003 62 0 0.0 0.0 0.00 0.00 0.00 64 1011.3
20260510003004 63 0 0.0 0.0 0.00 0.00 0.00 62 1011.3
20260510002003 64 0 0.0 0.0 0.00 0.00 0.00 60 1011.4
20260510001003 64 0 0.0 0.0 0.00 0.00 0.00 59 1011.2
20260510000003 65 164 0.0 1.0 0.00 0.00 0.00 57 1011.3
20260509235003 66 161 0.0 3.0 0.00 0.00 0.00 56 1011.3
20260509234003 66 117 0.0 2.0 0.00 0.00 0.00 54 1011.1
20260509233003 67 76 0.0 1.0 0.00 0.00 0.00 54 1010.9
20260509232024 68 99 1.0 2.0 0.00 0.00 0.00 53 1010.9
20260509231003 68 85 0.0 5.0 0.00 0.00 0.00 51 1010.8
20260509230004 69 110 1.0 4.0 0.00 0.00 0.00 54 1010.5
20260509225003 69 343 1.0 5.0 0.00 0.00 0.00 54 1010.7
20260509224004 69 34 1.0 3.0 0.00 0.00 0.00 53 1010.5
20260509223003 68 355 1.0 6.0 0.00 0.00 0.00 55 1010.4
20260509222003 68 325 1.0 4.0 0.00 0.00 0.00 55 1010.7
20260509221008 69 338 0.0 4.0 0.00 0.00 0.00 52 1010.7
20260509220007 69 336 1.0 4.0 0.00 0.00 0.00 55 1010.7
20260509215024 68 340 1.0 6.0 0.00 0.00 0.00 53 1010.7
20260509214024 68 61 0.0 5.0 0.00 0.00 0.00 57 1010.6
20260509213024 67 79 1.0 3.0 0.00 0.00 0.00 58 1010.5
20260509212024 67 50 1.0 5.0 0.00 0.00 0.00 54 1010.5
20260509211003 68 51 2.0 8.0 0.00 0.00 0.00 56 1010.3
20260509210003 68 97 2.0 5.0 0.00 0.00 0.00 55 1010.3
20260509205003 69 356 2.0 7.0 0.00 0.00 0.00 54 1010.3
20260509204003 68 94 2.0 9.0 0.00 0.00 0.00 56 1010.3
20260509203003 69 7 2.0 13.0 0.00 0.00 0.00 52 1010.3
20260509202003 69 48 1.0 8.0 0.00 0.00 0.00 51 1010.2
20260509201003 69 53 1.0 7.0 0.00 0.00 0.00 53 1010.2
20260509200003 69 80 2.0 6.0 0.00 0.00 0.00 52 1010.2
20260509195003 68 94 2.0 8.0 0.00 0.00 0.00 52 1010.3
20260509194024 68 4 2.0 8.0 0.00 0.00 0.00 52 1010.2
20260509193003 68 15 2.0 7.0 0.00 0.00 0.00 54 1010.2
20260509192003 68 57 2.0 9.0 0.00 0.00 0.00 54 1010.3
20260509191003 67 90 3.0 10.0 0.00 0.00 0.00 54 1010.2
20260509190003 67 79 2.0 11.0 0.00 0.00 0.00 56 1010.3
20260509185003 67 32 2.0 8.0 0.00 0.00 0.00 52 1010.1
20260509184007 66 350 2.0 10.0 0.00 0.00 0.00 56 1010.3
20260509183003 65 64 2.0 8.0 0.00 0.00 0.00 57 1010.5
20260509182007 65 96 2.0 11.0 0.00 0.00 0.00 56 1010.6
20260509181003 66 345 3.0 10.0 0.00 0.00 0.00 57 1010.6
20260509180003 66 73 2.0 10.0 0.00 0.00 0.00 54 1010.7